Regional Weather Roundup
Issued by NWS Pendleton, OR

Home | Current Version | Previous Version | Text Only | Print | Product List | Glossary On
Versions: 1 2 3 4 5 6 7 8 9 10 11 12 13 14 15 16 17 18 19 20 21 22 23 24 25 26 27 28 29 30 31 32 33 34 35 36 37 38 39 40 41 42 43 44 45 46 47 48 49 50
774
ASUS46 KPDT 010725
RWRPDT
PENDLETON REGIONAL WEATHER ROUNDUP
NATIONAL WEATHER SERVICE PENDLETON OREGON
1200 AM PDT SAT OCT 1 2016

NOTE: FAIR INDICATES FEW OR NO CLOUDS BELOW 12,000 FEET WITH NO
SIGNIFICANT WEATHER AND/OR OBSTRUCTIONS TO VISIBILITY.

# INDICATES UNOFFICIAL STATION AND DATA

WAZ520-010810-
EAST SLOPES OF WASHINGTON CASCADES

CITY            SKY/WX      TMP DP  RH  WIND    PRES   REMARKS
#CLE ELUM HS    N/A         51  38  61  W2      29.90R
#CLE ELUM LAKE  N/A         48  35  60  CALM    29.89R
#GLENWOOD       N/A         49  41  74  S2      29.96R
#MANASTASH CYN  N/A         50  37  61  CALM    29.91F
#NELSON 3SW     N/A         45  37  73  CALM    30.12R
#NILE           N/A         52  39  61  CALM    29.18R
#RONALD 2NW     N/A         51  N/A N/A E1      30.00R
#TEANAWAY 4NE   N/A         52  41  66  CALM    N/A
#TROUT LAKE 1NE N/A         51  41  68  W3      29.96R
#TROUT LAKE 1E  N/A         51  42  71  CALM    29.95S
$$

WAZ521-010810-
SIMCOE HIGHLANDS

CITY            SKY/WX      TMP DP  RH  WIND    PRES   REMARKS
#CENTERVILLE 1SWN/A         51  38  61  NW12    29.91R
#GOLDENDALE 1NE N/A         54  28  36  SW6     N/A
#GOLDENDALE 4W  N/A         53  44  71  W7      30.00R
#GOODNOE HILLS  N/A         57  40  53  NW28    N/A
#LYLE 6NE       N/A         53  42  66  W5      29.93R
$$

WAZ026-010810-
KITTITAS VALLEY

CITY            SKY/WX      TMP DP  RH  WIND    PRES   REMARKS
ELLENSBURG AP   PTCLDY      55  37  51  NW15    29.91S
#ELLENSBURG CWU N/A         54  38  55  N8      29.83R
#ELLENSBURG 3NE N/A         52  39  61  N3      29.92R
#ELLENSBURG 1E  N/A         54  N/A N/A NW1     N/A
#KITTITAS 4N    N/A         52  38  59  NW8     29.89F
#KITTITAS 3S    N/A         53  40  61  NW7     29.86F
#THORP 6N       N/A         51  38  61  NW14    29.90S
$$

WAZ027-010810-
YAKIMA VALLEY

CITY            SKY/WX      TMP DP  RH  WIND    PRES   REMARKS
SUNNYSIDE AP    CLOUDY      53  43  69  CALM    29.92R
YAKIMA AIRPORT  PTCLDY      62  30  30  W9      29.92R
YAKIMA-VAGABOND PTCLDY      56  35  45  SW5     29.90R
#GRANDVIEW      N/A         59  34  39  CALM    29.92R
#MABTON         N/A         61  34  36  NW5     29.91R
#NACHES 2SW     N/A         55  41  59  W2      29.93R
#TERRACE HTS    N/A         57  38  49  CALM    29.85R
#TOPPENISH      N/A         59  35  40  NW1     29.81R
#WEST VALLEY    N/A         59  31  34  CALM    29.86R
#WHITE SWAN 5E  N/A         60  38  44  SW12    29.90R
#WILEY CITY 3W  N/A         58  29  33  CALM    29.89S
$$

WAZ028-010810-
LOWER COLUMBIA BASIN...WASHINGTON

CITY            SKY/WX      TMP DP  RH  WIND    PRES   REMARKS
PASCO           LGT RAIN    63  38  39  SW7     29.91R
PROSSER AWOS    N/A         59  36  42  CALM    29.95R
RICHLAND AWOS   LGT RAIN    63  39  41  SE10    29.91R
#BENTON CITY    N/A         62  33  34  W5      29.81R
#CONNELL 5N     N/A         56  48  74  CALM    29.88R
#CONNELL 5NW    N/A         57  47  69  W2      29.83R
#ELTOPIA 6NW    N/A         59  44  57  CALM    28.88R
#KAHLOTUS       N/A         61  41  48  N17     29.85S
#KENNEWICK 3S   N/A         59  37  44  N1      29.90R
#PATERSON       N/A         63  44  50  W13     29.91R
#SAGEMOOR 2W    N/A         58  43  57  W1      29.72R
#TOUCHET 2S     N/A         61  42  50  SW9     29.88R
#WEST PASCO     N/A         62  38  41  S1      29.89R
$$

WAZ029-010810-
FOOTHILLS OF THE BLUES...WASHINGTON

CITY            SKY/WX      TMP DP  RH  WIND    PRES   REMARKS
WALLA WALLA AP  CLOUDY      60  39  46  S15     29.94R
#CLYDE 6NW      N/A         57  43  59  SW7     29.86R
#LOWDEN 2SE     N/A         61  43  51  W5      29.89R
#PLEASANT VIEW 1N/A         54  45  71  S7      29.90R
#PRESCOTT       N/A         60  42  51  CALM    29.89R
#WHITMAN COLLEGEN/A         60  42  51  S3      29.96R
#WAITSBURG 5S   N/A         56  40  55  S12     29.99R
#WALLA WALLA U  N/A         62  43  50  CALM    29.91R
#WHITMAN MISSIONN/A         62  44  52  CALM    29.93R
$$

WAZ030-010810-
BLUE MOUNTAINS...WASHINGTON

CITY            SKY/WX      TMP DP  RH  WIND    PRES   REMARKS
#DIXIE 5SE      N/A         52  36  54  S13     29.90R
$$

ORZ009-041-WAZ024-010810-
COLUMBIA RIVER GORGE

CITY            SKY/WX      TMP DP  RH  WIND    PRES   REMARKS
HOOD RIVER AP   MOCLDY      57  43  59  W9      29.99R
THE DALLES AP   PTCLDY      59  41  51  W12     29.97R
#ARLINGTON AIRPON/A         59  42  53  W12     29.93R
#CELILO DOT     N/A         60  41  49  SW8     N/A
#MOSIER 1S      N/A         55  32  41  NW6     29.97S
#MURDOCK        N/A         59  44  57  NW10    29.92F
#RUFUS DOT      N/A         63  43  48  N37     N/A
#SMITHVILLE     N/A         59  43  55  N12     29.91R

$$

ORZ510-010810-
NORTH CENTRAL OREGON

CITY            SKY/WX      TMP DP  RH  WIND    PRES   REMARKS
#ANTELOPE       N/A         46  36  68  CALM    29.82R
#CHENOWITH 1W   N/A         50  41  71  W24     N/A
#COW CYN RST AREN/A         47  N/A N/A W6      N/A
#DUFUR 9E       N/A         49  41  74  W3      29.99R
#GRASS VALLEY 1SN/A         47  38  71  W2      29.93R
#KENT DOT       N/A         48  33  56  N12     N/A    WCI 43
#MAUPIN SCHOOL  N/A         56  40  55  CALM    30.02R
#SHANIKO 5WSW   N/A         45  31  58  N6      N/A
#SHANIKO 4NW    N/A         44  34  68  W8      29.98S
#TYGH VALLEY 2NEN/A         53  38  57  CALM    29.95R
#WAPANITIA AIRPON/A         51  38  61  NW7     29.96R
#WASCO DOT      N/A         53  40  61  W8      N/A
#WASCO AIRPORT  N/A         52  40  63  W8      N/A
#WASCO 5NE      N/A         52  40  63  N9      29.92R
$$

ORZ511-010810-
CENTRAL OREGON

CITY            SKY/WX      TMP DP  RH  WIND    PRES   REMARKS
BEND AIRPORT    CLEAR       41  30  65  CALM    30.02R
MADRAS AIRPORT  CLEAR       48  32  54  SW6     30.02R
PRINEVILLE AP   CLEAR       45  32  60  W6      30.02R
REDMOND AIRPORT CLEAR       43  30  60  CALM    30.01R
#ASHWOOD SCHOOL N/A         43  36  76  CALM    29.97R
#BEND-AWBREY    N/A         45  32  60  S2      29.92R
#BEND-KIM LN    N/A         37  30  75  CALM    29.92R
#CULVER         N/A         48  33  56  CALM    29.89R
#CULVER 8W      N/A         49  35  58  W7      30.01R
#LAKE BILLY CHINN/A         50  N/A N/A W1      30.07R
#MADRAS 4S      N/A         N/A N/A N/A N12     30.08R
#POWELL BUTTE 3EN/A         45  33  63  W5      N/A
#PRINEVILLE 3N  N/A         45  34  65  NW1     29.95R

$$


ORZ509-010810-
EAST SLOPES OF OREGON CASCADES

CITY            SKY/WX      TMP DP  RH  WIND    PRES   REMARKS
#BLUE BOX PASS  N/A         42  N/A N/A W2      N/A
#CAMP SHERMAN   N/A         41  32  70  CALM    30.02R
#LA PINE DOT    N/A         35  30  82  NW1     N/A
#LA PINE 4NW    N/A         37  31  79  CALM    30.03R
#LAVA BUTTE DOT N/A         41  32  70  SE1     N/A
#SISTERS AIRPOR N/A         46  40  79  N2      30.17S
#SISTERS ODOT   N/A         47  N/A N/A SW3     N/A
#SISTERS 3N     N/A         45  30  55  NW2     30.00R
#SUNRIVER       N/A         42  34  73  S3      29.97R
#SUTTLE LK DOT  N/A         39  35  85  W20G36  N/A    WCI 29
#TUMALO 3W      N/A         43  32  65  CALM    29.81R
#WANOGA BUTTE D N/A         37  26  64  W8      N/A

$$

ORZ044-010810-
LOWER COLUMBIA BASIN...OREGON

CITY            SKY/WX      TMP DP  RH  WIND    PRES   REMARKS
HERMISTON       CLOUDY      58  45  62  S10     29.93R
#BOARDMAN SCHOOLN/A         62  40  44  SW7     29.93R
#BOARDMAN 8SW   N/A         60  41  49  W3      29.94R
#ECHO 8SW       N/A         59  42  53  SW5     29.96R
#I-84 EX 198 DOTN/A         55  47  74  E10     N/A
#UMATILLA       N/A         61  41  48  SW7     29.84R
$$

ORZ507-010810-
NORTHERN FOOTHILLS OF THE BLUES

CITY            SKY/WX      TMP DP  RH  WIND    PRES   REMARKS
PENDLETON AIRPT LGT RAIN    56  40  55  SW7     29.95R
#ADAMS 3WNW     N/A         55  41  59  SW7     29.92R
#ATHENA         N/A         56  42  59  CALM    29.95R
#CAYUSE         N/A         56  43  62  SW7     29.92R
#HELIX SCHOOL   N/A         55  41  59  N7      29.91R
#HELIX 3N       N/A         54  41  61  SW7     29.93R
#HOLDMAN 5SE    N/A         55  45  69  SW6     29.94R
#HOLDMAN 6E     N/A         55  41  59  N10     29.72R
#M-F GROVE ELEM N/A         60  39  46  S5      29.93R
#M-FREEWATER 5SEN/A         59  40  49  S3      29.96R
#PENDLETON DNTN N/A         60  36  41  SW1     29.98R
#PDT AQUATIC CTRN/A         59  37  44  CALM    29.99R
#PDT SUNRIDGE   N/A         58  41  53  SW2     29.98R
#PENDLETON 7NW  N/A         56  44  64  W3      32.46S
#PILOT ROCK 1S  N/A         55  40  57  CALM    29.99R
#PILOT ROCK     N/A         54  43  66  CALM    30.00R
#TUTUILLA       N/A         55  43  64  CALM    29.96R
#UMAPINE 2E     N/A         61  43  51  SW5     29.91R
#WESTON SCHOOL  N/A         56  38  51  N6      29.84R

$$

ORZ508-010810-
SOUTHERN FOOTHILLS OF THE BLUES

CITY            SKY/WX      TMP DP  RH  WIND    PRES   REMARKS
LEXINGTON       PTCLDY      55  41  59  SW10    30.01R
#AJAX           N/A         50  34  54  S7      27.73R
#CONDON SCHOOL  N/A         48  39  71  CALM    29.95R
#CONDON 5W      N/A         46  36  68  W7      29.96R
#FOSSIL SCHOOL  N/A         51  37  59  N1      29.95R
#HEPPNER EOC    N/A         53  42  66  SW3     29.88R
#HEPPNER 4NE    N/A         50  39  66  SW7     29.92S
#LEXINGTON 2SE  N/A         58  41  53  CALM    29.94R
#RUGGS 5NE      N/A         49  41  74  W1      30.14S
#RUGGS 2SW      N/A         50  40  68  SW3     29.95R

$$

ORZ502-503-010810-
BLUE MOUNTAINS

CITY            SKY/WX      TMP DP  RH  WIND    PRES   REMARKS
MEACHAM         PTCLDY      48  36  63  CALM    29.99R
#BATTLE MTN DOT N/A         44  39  82  N2      N/A
#CUTSFORTH PARK N/A         43  41  93  CALM    29.76R
#GREENHORN 9SW  N/A         51  34  52  CALM    26.15R
#HARDMAN 10S    N/A         44  39  82  CALM    30.00R
#HEPPNER 15SE   N/A         43  40  89  CALM    25.52R
#LADD CREEK ODOTN/A         56  37  49  NE8     N/A
#LONG CREEK HS  N/A         51  44  77  N5      29.97R
#N POWDER DOT   N/A         56  36  47  N14     N/A
#PIKES PEAK     N/A         50  36  58  SW16G25 27.99S
#TOLLGATE       N/A         41  35  79  S1      29.86S
#TROY SCHOOL    N/A         68  41  37  S3      29.64R
#UKIAH          N/A         48  41  77  NE2     29.84R
#WESTON 4E      N/A         50  39  66  S6      29.88R
$$

ORZ505-010810-
JOHN DAY BASIN

CITY            SKY/WX      TMP DP  RH  WIND    PRES   REMARKS
JOHN DAY        CLOUDY      55  40  57  W10     29.97R
#DAYVILLE SCHOOLN/A         58  40  51  W5      29.93R
#MITCHELL       N/A         51  38  61  CALM    30.16R
#MITCHELL 8NW   N/A         47  33  58  CALM    30.11R
#MONUMENT HS    N/A         56  41  57  E3      29.89R
#MT. VERNON 5SE N/A         52  39  61  CALM    29.91R
#SPRAY SCHOOL   N/A         57  N/A N/A CALM    N/A
$$

ORZ506-010810-
OCHOCO AND JOHN DAY HIGHLANDS

CITY            SKY/WX      TMP DP  RH  WIND    PRES   REMARKS
#BUCK CREEK DOT N/A         53  34  48  W8      N/A
#HORSE RIDGE DO N/A         44  31  60  NW8     N/A
#PAULINA SCHOOL N/A         52  29  41  W8      N/A
#PINE MTN OBS   N/A         37  30  75  CALM    N/A
#PRAIRIE CITY   N/A         54  41  61  NW2     30.08R
#SENECA         N/A         54  N/A N/A N1      N/A
#SENECA 9NW     N/A         51  35  54  CALM    29.83R
$$

ORZ049-010810-
GRANDE RONDE VALLEY

CITY            SKY/WX      TMP DP  RH  WIND    PRES   REMARKS
LA GRANDE       CLOUDY      55  32  41  W21G28  29.94R
#COVE SCHOOL    N/A         56  38  51  CALM    29.97R
#COVE 6NW       N/A         55  38  53  SW1     29.82R
#ELGIN 3N       N/A         56  34  43  CALM    29.92R
#ELGIN 1E       N/A         57  35  43  CALM    N/A
#IMBLER SCHOOL  N/A         54  36  50  CALM    29.90R
#ISLAND CITY 4N N/A         54  46  74  CALM    30.01S
#LADD CYN DOT   N/A         56  38  51  NW12    N/A
#LA GRANDE ELEM N/A         55  38  53  N2      29.97R
#UNION 1S       N/A         56  38  51  N7      29.83R
$$

ORZ050-010810-
WALLOWA COUNTY

CITY            SKY/WX      TMP DP  RH  WIND    PRES   REMARKS
JOSEPH AIRPORT  LGT DRIZZLE 55  36  49  N6      29.95R
#IMNAHA SCHOOL  N/A         64  40  41  S1      29.83R
#IMNAHA 10S     N/A         64  38  38  SW5     29.87R
#JOSEPH 3N      N/A         56  34  43  NW1     29.96R
#JOSEPH 3W      N/A         53  41  64  E2      29.83R
#LOSTINE        N/A         57  37  47  N8      29.61R
#LOSTINE 3SE    N/A         57  35  43  N8      29.91R
#MT HOWARD 8000 N/A         50  29  44  SE7     30.09R
#PROMISE 1S     N/A         57  39  51  E6      29.87R
#WALLOWA SCHOOL N/A         58  37  45  W2      29.89R



$$



USA.gov is the U.S. government's official web portal to all federal, state and local government web resources and services.